Regional Weather Roundup
Issued by NWS

Home | Current Version | Previous Version | Graphics & Text | Print | Product List | Glossary On
Versions: 1 2 3 4 5 6 7 8 9 10 11 12 13 14 15 16 17 18 19 20 21 22 23 24 25 26 27 28 29 30 31 32 33 34 35 36 37 38 39 40 41 42 43 44 45 46 47 48 49 50
000
ASUS43 KBIS 021410
RWRND

NORTH DAKOTA REGIONAL WEATHER ROUNDUP
NATIONAL WEATHER SERVICE BISMARCK ND
900 AM CDT THU OCT 02 2014

NOTE: "FAIR" INDICATES FEW OR NO CLOUDS BELOW 12,000 FEET WITH NO
SIGNIFICANT WEATHER AND/OR OBSTRUCTIONS TO VISIBILITY.


NDZ001>003-009>011-017-021500-
NORTHWEST NORTH DAKOTA

CITY           SKY/WX    TMP DP  RH WIND       PRES   REMARKS
WILLISTON      MOCLDY    45  41  86 SW10      29.82R
MINOT          CLOUDY    50  41  71 SW7       29.78F
MINOT AFB      MOSUNNY   48  44  87 SW9       29.77F
$$

NDZ018>021-031>035-040>046-021500-
SOUTHWEST NORTH DAKOTA

CITY           SKY/WX    TMP DP  RH WIND       PRES   REMARKS
BISMARCK       SUNNY     46  42  86 W6        29.89S
DICKINSON      MOSUNNY   44  37  76 SW14      29.85F
GARRISON         N/A     48  44  86 SW7       29.82F
HETTINGER ARPT CLOUDY    42  38  85 CALM      29.92F
$$

NDZ004>008-012>016-024-026-027-054-021500-
NORTHEAST NORTH DAKOTA

CITY           SKY/WX    TMP DP  RH WIND       PRES   REMARKS
GRAND FORKS    CLOUDY    50  47  89 W5        29.81S
GRND FRKS AFB  PTSUNNY   51  51  99 W6        29.82S
DEVILS LAKE    SUNNY     50  41  71 W10       29.82R
$$

NDZ022-023-025-028>030-036>039-047>053-021500-
SOUTHEAST NORTH DAKOTA

CITY           SKY/WX    TMP DP  RH WIND       PRES   REMARKS
FARGO          PTSUNNY   51  47  86 W8        29.84F
JAMESTOWN      MOSUNNY   46  43  89 W7        29.85S
$$



USA.gov is the U.S. government's official web portal to all federal, state and local government web resources and services.